This demonstration page uses our WeatherBlox Daily Observations layout. Learn more.

Left ArrowRight Arrow

36.17497, -115.13722

Hourly Observations for December 27, 2018

Temp ( °F °C ) Dew Point ( °F °C ) Humidity (%) Winds ( mph kmh ) Pressure ( in mb ) Visibility ( mi km ) Precip ( " mm )
12:53 am 00:53 Clear 39 3.9 19 -7.2 45 45 NNW 3 6 29.97 1015 10 16.0934 0 0
1:53 am 01:53 Clear 40 4.4 20 -6.7 45 45 Calm 29.98 1015 10 16.0934 0 0
2:53 am 02:53 Clear 40 4.4 20 -6.7 45 45 Calm 29.96 1015 10 16.0934 0 0
3:53 am 03:53 Clear 38 3.3 20 -6.7 48 48 WNW 6 9 29.95 1014 10 16.0934 0 0
4:53 am 04:53 Clear 36 2.2 22 -5.6 57 57 WNW 5 7 29.94 1014 10 16.0934 0 0
5:53 am 05:53 Clear 35 1.7 21 -6.1 57 57 N 3 6 29.96 1014 10 16.0934 0 0
6:53 am 06:53 Sunny 35 1.7 21 -6.1 57 57 NNW 5 7 29.97 1015 10 16.0934 0 0
7:53 am 07:53 Sunny 37 2.8 21 -6.1 52 52 SSW 3 6 29.97 1015 10 16.0934 0 0
8:53 am 08:53 Sunny 44 6.7 22 -5.6 41 41 N 3 6 29.97 1015 10 16.0934 0 0
9:53 am 09:53 Sunny 46 7.8 20 -6.7 35 35 WSW 8 13 29.97 1015 10 16.0934 0 0
10:53 am 10:53 Sunny 49 9.4 19 -7.2 31 31 ESE 5 7 29.94 1014 10 16.0934 0 0
11:53 am 11:53 Sunny 50 10 19 -7.2 29 29 VRB 5 7 29.91 1013 10 16.0934 0 0
12:41 pm 12:41 Sunny 53 11.7 19 -7.2 26 26 NNW 17 28 29.83 1010 10 16.0934 0 0
12:53 pm 12:53 Mostly Sunny 53 11.7 18 -7.8 25 25 NNW 14 22 29.89 1012 10 16.0934 0 0
1:53 pm 13:53 Mostly Cloudy 51 10.6 20 -6.7 29 29 NNW 9 15 29.9 1013 10 16.0934 0 0
2:53 pm 14:53 Mostly Sunny 53 11.7 16 -8.9 23 23 NNW 14 22 29.9 1013 10 16.0934 0 0
3:24 pm 15:24 Mostly Cloudy 50 10 21 -6.1 32 32 E 14 22 29.85 1011 10 16.0934 0 0
3:53 pm 15:53 Mostly Cloudy 49 9.4 21 -6.1 33 33 E 6 9 29.93 1013 10 16.0934 0 0
4:53 pm 16:53 Cloudy 47 8.3 21 -6.1 36 36 SE 6 9 29.94 1014 10 16.0934 0 0
5:53 pm 17:53 Mostly Cloudy 45 7.2 25 -3.9 46 46 N 6 9 29.98 1015 10 16.0934 0 0.0254
6:53 pm 18:53 Clear 46 7.8 19 -7.2 34 34 N 15 24 29.97 1015 10 16.0934 0 0
7:53 pm 19:53 Mostly Cloudy 46 7.8 20 -6.7 35 35 NNW 12 19 29.98 1015 10 16.0934 0 0
8:53 pm 20:53 Mostly Cloudy 46 7.8 16 -8.9 30 30 N 18 30 29.98 1015 10 16.0934 0 0
9:53 pm 21:53 Cloudy 45 7.2 16 -8.9 31 31 N 26 43 29.98 1015 10 16.0934 0 0
10:53 pm 22:53 Mostly Cloudy 44 6.7 16 -8.9 32 32 N 16 26 30 1016 10 16.0934 0 0
11:53 pm 23:53 Clear 43 6.1 13 -10.6 29 29 NNW 17 28 30 1016 10 16.0934 0 0

Powered by AerisWeather